Theta_e
309 309 309 309 308 308 307 306 306 306 305 305 305 302 301 301 301 301 299 296 293 292 291 291 291 291 291 291 292 292 292 293 293 292 292 292 292 292 292 292 291 291 291
307 308 308 308 308 306 306 306 306 306 306 305 304 303 300 300 300 301 300 296 293 291 291 291 291 291 290 290 291 291 291 292 292 292 291 291 291 291 292 292 292 291 291
306 306 306 305 305 305 305 305 305 306 306 305 304 303 302 300 300 300 300 298 295 292 291 291 291 290 290 290 290 289 289 290 291 291 291 290 290 290 291 291 291 291 291
305 305 305 305 305 305 305 305 305 305 305 305 305 304 303 301 299 299 299 298 295 292 290 290 290 290 290 289 289 289 289 289 288 288 289 289 289 289 290 290 291 291 290
304 304 304 304 304 304 304 304 304 304 304 305 304 304 303 301 300 299 298 298 295 292 290 290 290 290 289 289 288 288 288 288 288 289 289 289 289 289 289 290 289 289 290
303 304 303 303 303 303 303 303 303 304 303 304 304 304 302 301 301 298 298 297 295 291 290 289 289 289 289 288 288 288 288 288 289 290 290 289 289 289 289 289 288 287 288
302 302 301 301 301 301 302 302 303 303 303 303 303 303 303 301 300 299 297 296 299 293 289 288 289 289 288 288 288 287 288 288 288 289 289 289 289 288 288 288 288 288 287
301 302 302 302 302 302 301 300 301 302 302 302 302 302 302 302 300 298 296 295 299 294 289 288 288 288 288 287 287 287 287 288 288 288 288 288 289 288 288 288 288 287 287
296 296 296 298 301 302 301 301 301 299 300 301 301 301 301 301 300 298 295 294 298 297 289 288 288 287 287 287 287 287 287 287 288 288 288 288 288 288 287 287 287 287 286
295 295 295 295 295 297 300 301 301 300 299 299 300 300 300 300 299 297 294 293 297 298 290 288 288 287 287 287 287 287 287 287 288 288 288 288 287 286 286 286 286 286 285
292 292 293 293 293 294 296 299 301 300 299 299 299 300 300 299 299 296 294 293 296 297 289 288 288 287 287 287 288 288 287 288 288 288 288 288 286 286 286 285 285 285 285
291 291 291 291 291 292 293 295 298 299 298 298 298 299 299 298 297 294 293 294 296 296 289 288 287 286 287 287 288 287 288 288 288 288 287 287 286 286 285 286 285 285 285
292 292 291 291 291 291 292 293 295 298 299 298 297 297 297 297 297 294 293 294 296 290 288 287 287 286 286 286 287 288 287 287 287 287 287 286 285 285 286 286 286 285 286
293 293 292 291 291 291 291 292 294 296 298 298 297 296 296 296 298 296 294 295 293 288 288 287 287 286 286 287 287 287 286 286 286 286 285 285 285 285 285 284 285 283 284
293 292 292 291 291 291 291 292 293 294 296 296 297 296 295 295 298 296 296 296 294 291 287 287 287 286 288 287 286 286 286 286 286 285 285 285 284 283 284 283 283 282 283
292 292 291 291 291 292 293 294 294 294 295 296 296 296 296 295 294 293 295 294 292 287 286 286 286 287 289 286 286 286 285 286 286 285 284 284 283 283 283 283 283 282 283
291 291 292 292 292 292 292 293 294 295 294 294 295 295 294 293 292 291 293 292 291 287 286 286 287 288 288 286 286 285 285 285 285 285 285 284 284 284 282 282 283 284 285
292 292 292 292 292 292 292 292 293 293 294 294 294 293 294 292 291 292 292 291 288 288 287 287 287 289 287 286 285 285 285 285 284 284 285 285 284 283 282 282 283 284 284
291 292 291 291 291 291 292 292 292 292 293 293 293 293 293 293 291 292 290 290 290 288 287 287 287 287 285 285 284 284 284 284 284 285 285 285 284 283 283 283 285 284 283
291 291 291 291 291 291 291 291 291 292 293 293 293 293 293 292 292 292 291 291 290 290 289 287 287 286 285 285 284 283 284 284 284 285 285 285 285 282 283 284 285 284 285
291 291 291 291 292 291 291 291 291 291 292 292 293 292 292 291 292 292 292 292 291 291 290 287 286 286 285 284 284 283 284 284 285 285 285 285 285 284 284 284 285 285 285
291 291 291 291 291 291 291 291 291 291 291 291 292 292 291 291 291 292 292 292 292 291 287 286 286 285 284 284 283 283 284 284 285 285 285 285 285 285 284 284 285 285 285
291 291 291 291 291 291 291 291 291 291 291 291 291 291 291 291 291 292 292 293 292 289 287 285 285 285 284 285 283 283 284 284 284 284 285 284 284 284 284 284 284 285 285
290 291 291 291 291 291 291 292 292 291 291 290 290 290 290 290 290 291 292 292 292 288 287 285 285 285 284 286 283 284 284 284 284 284 284 284 284 284 284 284 285 285 285
290 291 291 291 291 290 290 290 290 290 290 290 290 290 290 289 290 290 291 292 291 287 286 285 285 284 287 284 283 284 284 284 284 284 284 284 284 284 284 284 284 284 284
290 290 291 290 290 290 290 290 289 289 290 290 290 289 289 289 289 289 290 291 288 287 287 285 284 285 286 283 283 284 284 284 284 284 282 283 283 284 284 284 284 284 283
Wind_Speed
19 20 21 19 21 24 27 27 26 26 27 28 27 25 24 22 21 21 20 19 19 17 16 15 13 13 12 12 11 10 11 11 16 19 17 16 17 16 14 13 13 11 12
14 14 16 18 20 23 25 27 28 29 28 28 29 28 27 25 23 23 21 20 19 18 17 17 15 14 13 14 13 13 13 12 14 19 18 17 18 15 16 15 16 12 11
16 16 16 17 19 22 25 26 28 29 29 29 29 30 29 27 26 25 23 22 21 20 20 19 17 17 15 14 14 15 15 15 15 18 19 16 16 14 13 14 16 16 14
16 19 21 22 24 26 27 28 28 29 30 30 30 30 30 29 29 27 25 23 23 22 22 21 19 18 17 16 16 16 15 16 16 17 18 18 18 15 14 17 19 20 20
19 20 22 23 25 26 27 28 28 29 30 31 31 32 31 32 32 30 27 25 25 23 23 22 21 20 19 18 17 15 15 15 15 16 16 16 17 16 15 17 21 21 18
20 21 22 23 25 26 28 28 27 28 29 30 33 34 34 33 33 32 29 27 25 24 25 23 22 21 20 19 18 17 17 15 16 16 17 17 17 17 16 19 21 23 23
22 22 23 23 25 26 27 27 27 28 28 30 31 33 35 34 33 33 32 29 27 27 25 24 23 22 21 20 19 18 18 16 16 17 19 20 21 20 19 18 18 18 18
26 27 27 27 28 28 29 30 30 29 30 30 31 32 34 35 33 33 32 31 30 26 26 24 24 23 20 20 19 19 18 17 17 17 17 17 17 15 16 19 20 21 21
32 32 31 31 31 32 32 32 32 32 33 33 33 32 33 34 32 31 31 33 34 26 26 25 24 24 21 19 18 20 20 19 15 14 14 16 20 19 19 17 17 17 21
36 36 36 35 34 34 33 33 32 31 33 33 33 32 31 31 28 28 29 36 35 27 24 25 25 23 20 18 18 17 18 17 16 16 17 16 17 16 12 13 15 18 18
38 38 38 38 38 37 36 34 34 32 31 32 31 30 29 28 28 27 30 36 34 26 24 25 24 22 20 18 18 18 19 18 16 19 21 19 17 15 13 13 14 15 18
41 42 42 42 41 38 37 38 37 36 35 34 31 30 28 27 27 28 31 32 32 23 23 25 23 21 20 19 18 19 17 17 21 22 22 19 18 14 14 14 15 17 19
44 44 43 42 42 39 38 37 37 35 35 36 33 32 29 27 28 29 28 28 27 20 22 23 22 21 20 19 17 18 22 21 20 21 20 17 15 16 17 18 18 19 19
46 46 44 43 42 42 43 39 37 36 34 35 34 33 32 30 28 26 27 26 20 23 25 24 21 20 18 18 20 19 19 20 19 18 16 15 16 18 15 15 17 17 20
43 44 45 46 46 46 43 41 37 36 34 35 32 30 30 32 28 22 22 27 22 20 24 23 22 21 20 21 20 19 18 17 17 16 17 17 17 16 16 17 18 19 20
42 43 44 45 43 44 45 46 38 37 34 32 30 29 28 27 23 23 22 23 20 20 24 26 26 22 21 21 20 18 17 17 17 18 19 21 19 18 18 18 18 18 21
38 39 39 40 41 41 41 41 42 39 37 31 29 28 30 27 21 25 25 24 19 20 26 26 26 24 22 20 20 18 18 17 18 19 20 18 17 17 17 18 19 18 19
37 37 39 40 41 43 42 40 39 38 37 36 29 30 29 27 30 28 26 22 21 24 26 28 28 25 21 20 19 19 18 18 19 19 17 16 16 17 17 18 18 19 21
38 39 40 40 40 39 38 39 38 37 35 33 32 31 30 25 29 25 24 26 28 27 27 30 27 23 21 19 18 18 19 19 19 18 16 16 16 16 17 18 18 19 20
39 41 38 37 38 37 36 36 37 35 33 32 32 33 31 28 23 26 27 31 30 27 23 27 25 22 21 19 18 18 19 19 19 18 17 16 16 16 18 19 19 21 23
36 38 37 35 37 37 35 35 35 33 33 33 32 30 28 28 27 25 28 32 32 26 21 24 22 20 20 18 18 19 19 19 18 17 16 15 16 17 17 18 19 21 24
33 36 37 38 38 37 37 34 34 33 32 32 31 29 24 25 26 24 26 29 26 20 21 22 21 20 18 17 18 18 18 17 17 16 15 15 16 16 18 18 20 23 25
35 36 38 40 39 38 36 35 34 32 31 29 29 28 25 23 24 25 23 22 18 16 18 19 19 18 16 16 17 17 17 15 15 15 15 15 16 16 16 19 22 24 25
38 38 39 41 39 38 37 36 35 33 29 28 26 26 25 22 21 23 22 22 19 18 18 18 17 15 14 15 17 16 15 14 15 14 15 16 16 14 16 20 22 24 23
39 40 40 40 41 37 37 36 35 35 29 27 25 24 24 21 20 21 21 19 19 18 17 17 15 14 15 15 16 16 14 15 15 14 15 14 14 15 19 20 23 23 26
40 40 40 39 37 36 35 34 34 32 29 25 24 22 21 21 19 19 19 18 18 17 18 17 14 15 14 15 15 14 14 14 14 14 12 13 15 19 19 21 22 23 26
Wind_Direction
307 302 301 297 292 292 297 301 299 294 289 283 281 279 280 283 288 292 295 297 297 294 291 288 286 286 287 286 286 285 282 285 290 301 309 314 320 326 331 338 336 336 336
333 311 305 303 300 300 304 307 304 300 295 290 284 279 278 279 282 287 291 294 294 293 289 284 284 284 283 281 285 286 285 287 292 300 309 314 314 317 319 326 330 334 337
328 322 316 312 309 309 308 307 303 300 297 293 287 281 279 276 277 280 283 287 288 287 283 281 282 282 281 282 282 286 283 283 286 291 302 311 312 320 308 305 316 321 329
323 319 313 311 308 305 305 304 301 299 295 292 288 286 280 276 273 274 277 281 283 283 281 279 279 279 283 282 283 286 282 284 284 288 294 301 303 308 309 307 308 317 325
314 314 311 305 303 303 303 302 300 296 293 291 287 284 281 276 272 271 272 276 278 277 275 275 276 277 279 280 285 282 282 285 289 293 297 301 305 306 307 313 316 320 327
332 325 319 314 308 305 304 302 296 292 290 287 285 284 282 279 275 270 268 268 273 273 274 274 273 274 278 279 285 286 287 289 293 297 298 298 307 307 306 308 311 318 323
346 340 334 327 320 316 311 307 301 296 293 288 285 283 282 281 279 273 267 266 267 272 268 270 271 271 272 277 279 279 280 281 274 277 283 290 296 303 305 313 315 313 310
344 341 338 335 331 328 322 313 304 299 294 291 288 286 283 282 279 273 266 262 266 265 268 267 269 269 269 271 275 277 283 285 282 277 277 285 291 299 299 307 307 305 305
345 341 336 331 326 324 322 320 312 302 294 289 287 285 282 280 278 272 262 255 263 259 268 265 267 268 269 271 272 277 282 288 288 278 274 277 279 278 281 280 286 296 302
329 325 323 322 320 316 314 314 313 307 300 292 286 282 281 279 275 269 259 252 260 254 260 263 262 264 262 269 273 271 278 291 291 284 282 286 289 292 280 277 284 288 297
320 316 314 313 315 312 311 307 307 305 299 294 289 286 280 276 273 266 257 254 264 252 259 260 260 258 260 264 261 272 282 290 293 287 288 289 295 286 281 280 283 287 288
322 319 317 317 318 317 315 313 309 306 301 297 291 285 280 276 270 263 260 256 260 247 254 259 259 257 258 261 256 269 272 274 273 277 281 286 290 280 281 283 286 284 283
323 320 319 317 316 317 317 312 311 306 302 299 294 287 282 277 270 264 259 260 247 248 256 256 254 255 259 263 266 266 271 273 272 275 283 285 283 284 287 286 286 285 283
321 320 320 319 317 315 314 314 309 306 300 298 294 287 283 279 275 263 254 250 238 240 252 251 252 255 261 268 268 268 272 275 269 272 277 282 286 287 288 294 299 301 299
319 318 317 315 313 311 309 309 307 301 298 295 291 287 279 277 276 266 255 248 242 242 251 246 247 251 260 262 267 273 272 264 261 273 277 280 282 287 290 296 297 298 297
316 314 312 311 311 311 313 311 306 301 298 290 287 284 279 276 268 261 261 249 236 242 239 242 244 248 260 264 272 275 272 263 268 274 274 275 279 283 292 296 298 298 300
315 314 315 315 316 317 316 314 313 309 306 296 286 281 280 276 260 258 264 251 233 235 239 241 246 254 260 265 272 272 275 268 270 269 274 271 275 284 289 291 295 300 301
317 316 316 317 316 314 311 310 311 309 306 302 294 284 277 269 271 264 259 249 223 229 242 246 250 257 266 268 272 270 274 272 270 277 272 274 279 285 288 290 298 304 304
317 315 317 316 310 308 302 301 306 307 304 300 297 289 284 267 266 267 258 246 232 237 245 251 254 261 266 268 270 269 271 271 271 273 272 277 283 285 286 292 299 300 300
318 315 312 310 312 313 311 308 307 308 305 298 294 292 293 290 265 255 239 240 238 242 247 254 255 260 262 264 266 268 268 266 270 270 273 279 283 284 287 295 301 304 307
318 318 319 315 312 318 318 318 313 308 303 298 295 295 294 291 279 266 250 239 239 250 248 259 259 260 260 262 264 264 265 266 269 269 274 281 285 288 293 298 301 305 310
318 318 318 318 319 319 318 317 316 309 304 299 297 296 292 286 279 269 254 246 250 245 255 259 258 256 256 261 262 261 262 265 265 268 274 281 287 290 296 301 306 310 312
320 318 314 313 315 315 314 314 315 313 308 302 297 293 288 285 280 272 260 246 240 248 256 253 251 250 250 262 262 260 259 262 266 269 275 283 289 294 299 305 310 313 316
317 316 315 313 310 308 307 304 308 314 308 304 296 287 282 283 278 272 265 250 236 244 251 247 247 246 248 262 261 257 257 257 262 271 279 284 289 296 302 308 312 317 316
312 312 311 312 306 307 310 306 305 306 307 305 298 287 282 279 273 268 263 250 234 240 251 246 243 242 255 260 258 255 251 254 265 275 279 282 289 300 308 310 315 312 307
311 311 307 308 306 306 309 307 308 303 302 301 298 286 279 276 272 266 261 242 224 233 248 242 238 242 254 258 253 248 247 255 266 276 285 289 295 302 304 305 305 304 308